Showing default

IRIDE-MS1-EAG2-16, 68452

Orbit data source: Space-Track

IRIDE-MS1-EAG2-16, 68452 is an Italian payload satellite in SSO that was launched on Mon, 30 Mar 2026 UTC via an FALCON 9 launch vehicle from the Air Force Western Test Range (AFWTR). Payload-class satellites include a variety of spacecraft equipped with specific instruments for various scientific and technological missions. These include communications satellites like Starlink; space stations such as the ISS; scientific satellites like the Hubble; Earth observation satellites from companies like Planet Labs, Umbra, and HawkEye 360; GPS; miniature CubeSats for education and research; and military/defense satellites.

Loading next visibility...
Identifier
68452, 2026-067AN
Orbit
SSO
Country
Flag of ITIT
Related business
Manufacturer
OHB-I
Mission
Operational spacecraft
Bus & Motor
EAGLET, Unknown motor
Mass
25 kg wet, 25 kg dry
Launch date (UTC)
2026-03-30 (3 months ago)
Launch vehicle
FALCON 9
Launch site
Air Force Western Test Range (AFWTR)
Object type
Payload
Rocket body
Debris
Shape & HBR
Unknown shape, 14.5 m
Radar Cross Section
Large (>1 m²)

Expand to show TLE details & history
Last TLE update: 10 hours ago

TLE from 10 hours ago
0 IRIDE-MS1-EAG2-16
1 68452U 26067AN  26174.88543453  .00004825  00000-0  23924-3 0  9998
2 68452  97.4544 133.2090 0005553  58.6782 301.4995 15.18191947 12956
Epoch: 2026-06-23T21:15Z
TLE epoch observation values (Epoch: 2026-06-23T21:15:01.543Z)
Latitude
-0.00002°
Longitude
-97.59801°
Altitude
512.394 km
Speed
7.609 km/s
True Right ascension
08h 52m 50s
True Declination
0° 00' 00"
Sunlit
Object was in daylight at epoch
Visualization orbit readout
Latitude
Unknown
Longitude
Unknown
Altitude
Unknown
Speed
Unknown
Apparent Right ascension
Unknown
Apparent Declination
Unknown
Sunlit
N/A
Visualization observer readout
Local Sidereal Time
17:55:37
Azimuth
Unknown
Elevation
Unknown
Doppler factor
Unknown
Orbital elements
Apogee altitude
512.099 km
Perigee altitude
504.451 km
Semi-major axis
6,886.412 km
Eccentricity
0.00056
Inclination
97.4544°
RAAN
133.209°
Arg. of periapsis
58.6782°
True anomaly
301.44522°
Mean anomaly
301.4995°
Eccentric anomaly
301.47236°
Mean motion
3.79799 °/min
Orbital period
94.79 mins
BSTAR
0.00023924
Loading maneuver chart data...
Computing Atmospheric mass density...
Loading historical data...
Loading historical data...
Loading historical data...
Loading historical data...
Loading historical data...
Loading historical data...
Loading historical data...

Documentation

Showing up to 5 results
|